| time (UTC) | temp F | wind direction | speed knots | gust knots | rain 1hr in | rain 24hr in | rain mn in | humidity % | barometer mb |
| 20260506102548 | 57 | 23 | 1.7 | 4.3 | 0.00 | 0.00 | 0.00 | 76 | 1011.2 |
| 20260506102048 | 57 | 355 | 0.9 | 4.3 | 0.00 | 0.00 | 0.00 | 75 | 1011.1 |
| 20260506101550 | 57 | 327 | 0.9 | 4.3 | 0.00 | 0.00 | 0.00 | 75 | 1011.0 |
| 20260506101048 | 57 | 19 | 0.9 | 4.3 | 0.00 | 0.00 | 0.00 | 75 | 1010.9 |
| 20260506100548 | 57 | 13 | 1.7 | 7.0 | 0.00 | 0.00 | 0.00 | 75 | 1010.9 |
| 20260506100107 | 57 | 20 | 1.7 | 7.0 | 0.00 | 0.00 | 0.00 | 75 | 1010.9 |
| 20260506095548 | 57 | 346 | 1.7 | 4.3 | 0.00 | 0.00 | 0.00 | 75 | 1010.5 |
| 20260506095047 | 57 | 355 | 0.9 | 4.3 | 0.00 | 0.00 | 0.00 | 75 | 1010.6 |
| 20260506094600 | 57 | 18 | 0.9 | 4.3 | 0.00 | 0.00 | 0.00 | 76 | 1010.6 |
| 20260506094046 | 57 | 344 | 0.9 | 4.3 | 0.00 | 0.00 | 0.00 | 76 | 1010.7 |
| 20260506093547 | 57 | 15 | 1.7 | 6.1 | 0.00 | 0.00 | 0.00 | 75 | 1010.7 |
| 20260506093052 | 58 | 340 | 1.7 | 6.1 | 0.00 | 0.00 | 0.00 | 76 | 1010.3 |
| 20260506092547 | 58 | 291 | 1.7 | 4.3 | 0.00 | 0.00 | 0.00 | 76 | 1010.3 |
| 20260506092047 | 58 | 11 | 0.9 | 3.5 | 0.00 | 0.00 | 0.00 | 76 | 1010.4 |
| 20260506091551 | 58 | 23 | 1.7 | 3.5 | 0.00 | 0.00 | 0.00 | 77 | 1010.1 |
| 20260506091048 | 58 | 350 | 0.9 | 3.5 | 0.00 | 0.00 | 0.00 | 76 | 1010.2 |
| 20260506090548 | 58 | 0 | 0.0 | 4.3 | 0.00 | 0.00 | 0.00 | 77 | 1010.3 |
| 20260506090057 | 58 | 5 | 1.7 | 4.3 | 0.00 | 0.00 | 0.00 | 76 | 1010.1 |
| 20260506085547 | 58 | 24 | 1.7 | 5.2 | 0.00 | 0.00 | 0.00 | 76 | 1010.1 |
| 20260506085051 | 58 | 331 | 0.0 | 5.2 | 0.00 | 0.00 | 0.00 | 76 | 1010.2 |
| 20260506084554 | 58 | 339 | 1.7 | 5.2 | 0.00 | 0.00 | 0.00 | 76 | 1010.1 |
| 20260506084048 | 58 | 22 | 0.9 | 4.3 | 0.00 | 0.00 | 0.00 | 77 | 1009.9 |
| 20260506083548 | 58 | 16 | 0.9 | 4.3 | 0.00 | 0.00 | 0.00 | 77 | 1009.9 |
| 20260506083058 | 59 | 45 | 0.9 | 4.3 | 0.00 | 0.00 | 0.00 | 77 | 1009.9 |
| 20260506082547 | 59 | 355 | 0.9 | 4.3 | 0.00 | 0.00 | 0.00 | 77 | 1009.9 |
| 20260506082047 | 59 | 0 | 1.7 | 3.5 | 0.00 | 0.00 | 0.00 | 77 | 1009.9 |
| 20260506081602 | 59 | 30 | 1.7 | 3.5 | 0.00 | 0.00 | 0.00 | 77 | 1009.8 |
| 20260506081047 | 59 | 355 | 0.9 | 3.5 | 0.00 | 0.00 | 0.00 | 77 | 1009.8 |
| 20260506080547 | 59 | 360 | 1.7 | 4.3 | 0.00 | 0.00 | 0.00 | 77 | 1009.8 |
| 20260506073053 | 59 | 81 | 1.7 | 5.2 | 0.00 | 0.00 | 0.00 | 77 | 1009.2 |
| 20260506072548 | 59 | 360 | 0.9 | 5.2 | 0.00 | 0.00 | 0.00 | 77 | 1009.2 |
| 20260506072047 | 59 | 50 | 0.9 | 5.2 | 0.00 | 0.00 | 0.00 | 77 | 1009.5 |
| 20260506071548 | 60 | 24 | 1.7 | 5.2 | 0.00 | 0.00 | 0.00 | 77 | 1009.5 |
| 20260506071047 | 60 | 52 | 0.9 | 5.2 | 0.00 | 0.00 | 0.00 | 77 | 1009.3 |
| 20260506070550 | 60 | 20 | 1.7 | 7.0 | 0.00 | 0.00 | 0.00 | 77 | 1009.6 |
| 20260506062048 | 60 | 16 | 1.7 | 6.1 | 0.00 | 0.00 | 0.00 | 79 | 1009.4 |
| 20260506061553 | 61 | 33 | 0.9 | 4.3 | 0.00 | 0.00 | 0.00 | 78 | 1009.4 |
| 20260506061044 | 61 | 5 | 0.9 | 5.2 | 0.00 | 0.00 | 0.00 | 79 | 1009.5 |
| 20260506060545 | 61 | 25 | 0.9 | 5.2 | 0.00 | 0.00 | 0.00 | 79 | 1009.5 |
| 20260506051044 | 62 | 355 | 2.6 | 5.2 | 0.00 | 0.00 | 0.00 | 78 | 1009.5 |
| 20260506050544 | 62 | 344 | 1.7 | 7.0 | 0.00 | 0.00 | 0.00 | 77 | 1009.5 |
| 20260506045048 | 62 | 0 | 0.9 | 7.0 | 0.00 | 0.00 | 0.00 | 77 | 1009.3 |
| 20260506044553 | 63 | 0 | 1.7 | 7.0 | 0.00 | 0.00 | 0.00 | 77 | 1009.3 |
| 20260506044048 | 63 | 346 | 1.7 | 7.0 | 0.00 | 0.00 | 0.00 | 77 | 1009.3 |
| 20260506043548 | 63 | 40 | 1.7 | 7.0 | 0.00 | 0.00 | 0.00 | 77 | 1009.4 |
| 20260506043049 | 63 | 9 | 1.7 | 5.2 | 0.00 | 0.00 | 0.00 | 77 | 1009.4 |
| 20260506042548 | 64 | 30 | 1.7 | 6.1 | 0.00 | 0.00 | 0.00 | 77 | 1009.5 |
| 20260506042049 | 64 | 21 | 0.9 | 6.1 | 0.00 | 0.00 | 0.00 | 77 | 1009.4 |
| 20260506041552 | 64 | 343 | 1.7 | 7.0 | 0.00 | 0.00 | 0.00 | 77 | 1009.4 |
| 20260506041047 | 64 | 19 | 1.7 | 7.0 | 0.00 | 0.00 | 0.00 | 77 | 1009.3 |
| 20260506040550 | 64 | 26 | 1.7 | 7.8 | 0.00 | 0.00 | 0.00 | 77 | 1009.3 |
| 20260506040056 | 65 | 5 | 1.7 | 7.8 | 0.00 | 0.00 | 0.00 | 77 | 1009.5 |
| 20260506035547 | 65 | 318 | 1.7 | 7.0 | 0.00 | 0.00 | 0.00 | 76 | 1009.3 |
| 20260506035048 | 65 | 26 | 1.7 | 7.0 | 0.00 | 0.00 | 0.00 | 77 | 1008.9 |
| 20260506034610 | 65 | 10 | 2.6 | 7.0 | 0.00 | 0.00 | 0.00 | 76 | 1008.7 |
| 20260506034045 | 65 | 342 | 1.7 | 7.8 | 0.00 | 0.00 | 0.00 | 76 | 1008.7 |
| 20260506033544 | 66 | 23 | 1.7 | 7.8 | 0.00 | 0.00 | 0.00 | 76 | 1008.5 |
| 20260506033051 | 66 | 355 | 2.6 | 7.8 | 0.00 | 0.00 | 0.00 | 75 | 1008.6 |
| 20260506032544 | 66 | 22 | 1.7 | 6.1 | 0.00 | 0.00 | 0.00 | 75 | 1008.6 |
| 20260506032048 | 67 | 33 | 2.6 | 6.1 | 0.00 | 0.00 | 0.00 | 75 | 1008.5 |
| 20260506031553 | 67 | 355 | 1.7 | 7.0 | 0.00 | 0.00 | 0.00 | 74 | 1008.6 |
| 20260506031048 | 67 | 23 | 0.9 | 7.0 | 0.00 | 0.00 | 0.00 | 74 | 1008.5 |
| 20260506030547 | 68 | 315 | 1.7 | 7.0 | 0.00 | 0.00 | 0.00 | 75 | 1008.5 |
| 20260506030050 | 68 | 352 | 0.9 | 5.2 | 0.00 | 0.00 | 0.00 | 75 | 1008.5 |
| 20260506025548 | 68 | 0 | 0.9 | 5.2 | 0.00 | 0.00 | 0.00 | 74 | 1008.2 |
| 20260506025048 | 68 | 283 | 1.7 | 6.1 | 0.00 | 0.00 | 0.00 | 74 | 1008.1 |
| 20260506024555 | 68 | 355 | 0.9 | 6.1 | 0.00 | 0.00 | 0.00 | 74 | 1008.1 |
| 20260506024048 | 68 | 360 | 0.9 | 5.2 | 0.00 | 0.00 | 0.00 | 73 | 1007.9 |
| 20260506023548 | 68 | 355 | 0.9 | 7.0 | 0.00 | 0.00 | 0.00 | 73 | 1007.9 |
| 20260506023057 | 68 | 348 | 1.7 | 7.0 | 0.00 | 0.00 | 0.00 | 73 | 1007.9 |
| 20260506022547 | 69 | 332 | 0.9 | 5.2 | 0.00 | 0.00 | 0.00 | 73 | 1007.7 |
| 20260506022047 | 69 | 16 | 0.9 | 5.2 | 0.00 | 0.00 | 0.00 | 72 | 1007.4 |
| 20260506021550 | 69 | 308 | 0.9 | 7.0 | 0.00 | 0.00 | 0.00 | 72 | 1007.4 |
| 20260506021044 | 69 | 329 | 0.9 | 7.0 | 0.00 | 0.00 | 0.00 | 72 | 1007.2 |
| 20260506020548 | 69 | 349 | 0.9 | 3.5 | 0.00 | 0.00 | 0.00 | 71 | 1007.2 |
| 20260506020051 | 69 | 344 | 1.7 | 5.2 | 0.00 | 0.00 | 0.00 | 71 | 1007.1 |
| 20260506015544 | 69 | 355 | 0.9 | 6.1 | 0.00 | 0.00 | 0.00 | 71 | 1007.0 |
| 20260506015048 | 70 | 32 | 1.7 | 6.1 | 0.00 | 0.00 | 0.00 | 71 | 1006.6 |
| 20260506014554 | 70 | 355 | 0.9 | 7.8 | 0.00 | 0.00 | 0.00 | 71 | 1006.4 |
| 20260506014051 | 70 | 355 | 0.9 | 7.8 | 0.00 | 0.00 | 0.00 | 71 | 1006.5 |
| 20260506013552 | 71 | 15 | 2.6 | 7.8 | 0.00 | 0.00 | 0.00 | 70 | 1006.5 |
| 20260506013106 | 71 | 15 | 1.7 | 4.3 | 0.00 | 0.00 | 0.00 | 71 | 1006.4 |
| 20260506012548 | 71 | 11 | 0.9 | 3.5 | 0.00 | 0.00 | 0.00 | 70 | 1006.3 |
| 20260506012050 | 71 | 19 | 0.9 | 2.6 | 0.00 | 0.00 | 0.00 | 70 | 1005.9 |
| 20260506011559 | 71 | 321 | 0.9 | 3.5 | 0.00 | 0.00 | 0.00 | 70 | 1006.3 |
| 20260506011047 | 72 | 345 | 0.9 | 3.5 | 0.00 | 0.00 | 0.00 | 70 | 1006.3 |
| 20260506010548 | 72 | 319 | 1.7 | 3.5 | 0.00 | 0.00 | 0.00 | 69 | 1006.1 |
| 20260506010117 | 72 | 360 | 0.9 | 2.6 | 0.00 | 0.00 | 0.00 | 70 | 1006.2 |
| 20260506005546 | 72 | 0 | 0.0 | 3.5 | 0.00 | 0.00 | 0.00 | 69 | 1006.0 |
| 20260506005044 | 73 | 0 | 0.0 | 3.5 | 0.00 | 0.00 | 0.00 | 69 | 1005.9 |
| 20260506004549 | 73 | 337 | 0.9 | 7.8 | 0.00 | 0.00 | 0.00 | 69 | 1005.8 |
| 20260506004044 | 73 | 342 | 0.9 | 7.8 | 0.00 | 0.00 | 0.00 | 68 | 1005.5 |
| 20260506003549 | 73 | 38 | 1.7 | 7.8 | 0.00 | 0.00 | 0.00 | 68 | 1005.1 |
| 20260506003051 | 74 | 11 | 2.6 | 7.8 | 0.00 | 0.00 | 0.00 | 68 | 1005.3 |
| 20260506002544 | 74 | 11 | 0.9 | 6.1 | 0.00 | 0.00 | 0.00 | 68 | 1005.4 |
| 20260506002044 | 75 | 5 | 1.7 | 7.0 | 0.00 | 0.00 | 0.00 | 68 | 1005.1 |
| 20260506001554 | 75 | 333 | 1.7 | 7.0 | 0.00 | 0.00 | 0.00 | 67 | 1005.1 |
| 20260506001044 | 76 | 355 | 2.6 | 7.0 | 0.00 | 0.00 | 0.00 | 66 | 1005.2 |
| 20260506000548 | 77 | 31 | 1.7 | 5.2 | 0.00 | 0.00 | 0.00 | 66 | 1005.1 |
| 20260506000053 | 77 | 360 | 0.9 | 5.2 | 0.00 | 0.00 | 0.00 | 65 | 1005.0 |
| 20260505235548 | 78 | 17 | 0.9 | 5.2 | 0.00 | 0.00 | 0.00 | 65 | 1004.7 |
| 20260505235050 | 78 | 338 | 0.9 | 4.3 | 0.00 | 0.00 | 0.00 | 65 | 1004.9 |
| 20260505234552 | 79 | 351 | 0.9 | 3.5 | 0.00 | 0.00 | 0.00 | 64 | 1004.7 |
| 20260505234047 | 79 | 281 | 0.9 | 5.2 | 0.00 | 0.00 | 0.00 | 64 | 1004.6 |
| 20260505233547 | 79 | 325 | 0.9 | 6.1 | 0.00 | 0.00 | 0.00 | 64 | 1004.6 |
| 20260505233105 | 80 | 36 | 1.7 | 6.1 | 0.00 | 0.00 | 0.00 | 63 | 1004.5 |
| 20260505232550 | 80 | 344 | 0.9 | 6.1 | 0.00 | 0.00 | 0.00 | 63 | 1004.6 |
| 20260505232048 | 81 | 288 | 1.7 | 6.1 | 0.00 | 0.00 | 0.00 | 61 | 1004.9 |
| 20260505231551 | 81 | 329 | 0.9 | 6.1 | 0.00 | 0.00 | 0.00 | 60 | 1004.8 |
| 20260505231047 | 82 | 281 | 1.7 | 7.0 | 0.00 | 0.00 | 0.00 | 60 | 1004.5 |
| 20260505230544 | 82 | 0 | 1.7 | 7.0 | 0.00 | 0.00 | 0.00 | 60 | 1004.4 |
| 20260505230058 | 83 | 289 | 2.6 | 7.0 | 0.00 | 0.00 | 0.00 | 59 | 1004.5 |
| 20260505225546 | 83 | 300 | 1.7 | 7.0 | 0.00 | 0.00 | 0.00 | 59 | 1004.4 |
| 20260505225045 | 84 | 294 | 1.7 | 4.3 | 0.00 | 0.00 | 0.00 | 57 | 1004.2 |
| 20260505224554 | 85 | 0 | 0.9 | 7.0 | 0.00 | 0.00 | 0.00 | 57 | 1004.0 |
| 20260505224049 | 85 | 0 | 1.7 | 7.0 | 0.00 | 0.00 | 0.00 | 55 | 1004.0 |
| 20260505223544 | 85 | 0 | 1.7 | 7.0 | 0.00 | 0.00 | 0.00 | 54 | 1004.1 |
| 20260505223052 | 85 | 325 | 0.9 | 7.0 | 0.00 | 0.00 | 0.00 | 54 | 1004.3 |
| 20260505222544 | 85 | 329 | 1.7 | 4.3 | 0.00 | 0.00 | 0.00 | 53 | 1004.1 |
| 20260505222048 | 86 | 325 | 0.9 | 7.0 | 0.00 | 0.00 | 0.00 | 52 | 1003.9 |
| 20260505221555 | 86 | 299 | 0.9 | 7.0 | 0.00 | 0.00 | 0.00 | 52 | 1003.9 |
| 20260505221046 | 87 | 349 | 1.7 | 7.0 | 0.00 | 0.00 | 0.00 | 51 | 1003.8 |
| 20260505220544 | 88 | 15 | 1.7 | 8.7 | 0.00 | 0.00 | 0.00 | 50 | 1003.7 |
| 20260505220055 | 89 | 355 | 0.9 | 8.7 | 0.00 | 0.00 | 0.00 | 50 | 1003.6 |
| 20260505215547 | 91 | 287 | 1.7 | 7.0 | 0.00 | 0.00 | 0.00 | 48 | 1003.4 |
| 20260505215044 | 92 | 351 | 1.7 | 7.0 | 0.00 | 0.00 | 0.00 | 48 | 1003.6 |
| 20260505214604 | 93 | 292 | 0.9 | 6.1 | 0.00 | 0.00 | 0.00 | 45 | 1003.7 |
| 20260505214043 | 93 | 263 | 1.7 | 6.1 | 0.00 | 0.00 | 0.00 | 46 | 1003.7 |
| 20260505213543 | 93 | 236 | 0.9 | 7.0 | 0.00 | 0.00 | 0.00 | 44 | 1003.7 |
| 20260505213051 | 94 | 232 | 1.7 | 7.0 | 0.00 | 0.00 | 0.00 | 46 | 1003.5 |
| 20260505212548 | 94 | 307 | 1.7 | 7.0 | 0.00 | 0.00 | 0.00 | 47 | 1003.7 |
| 20260505212048 | 93 | 0 | 0.9 | 6.1 | 0.00 | 0.00 | 0.00 | 48 | 1003.7 |
| 20260505211549 | 93 | 281 | 0.9 | 6.1 | 0.00 | 0.00 | 0.00 | 48 | 1003.8 |
| 20260505211045 | 93 | 286 | 0.9 | 6.1 | 0.00 | 0.00 | 0.00 | 49 | 1004.0 |
| 20260505210547 | 93 | 246 | 0.9 | 3.5 | 0.00 | 0.00 | 0.00 | 50 | 1003.9 |
| 20260505210051 | 92 | 207 | 0.9 | 7.0 | 0.00 | 0.00 | 0.00 | 50 | 1004.0 |
| 20260505205547 | 92 | 281 | 1.7 | 7.0 | 0.00 | 0.00 | 0.00 | 50 | 1004.1 |
| 20260505205044 | 92 | 0 | 0.9 | 8.7 | 0.00 | 0.00 | 0.00 | 52 | 1004.0 |
| 20260505204618 | 92 | 282 | 2.6 | 8.7 | 0.00 | 0.00 | 0.00 | 51 | 1004.0 |
| 20260505204046 | 91 | 183 | 0.9 | 7.8 | 0.00 | 0.00 | 0.00 | 53 | 1004.3 |
| 20260505203547 | 91 | 0 | 1.7 | 7.8 | 0.00 | 0.00 | 0.00 | 53 | 1004.2 |
| 20260505203049 | 91 | 248 | 2.6 | 7.0 | 0.00 | 0.00 | 0.00 | 53 | 1004.3 |
| 20260505202550 | 91 | 245 | 0.9 | 7.8 | 0.00 | 0.00 | 0.00 | 53 | 1004.3 |
| 20260505202047 | 90 | 211 | 0.9 | 7.8 | 0.00 | 0.00 | 0.00 | 56 | 1004.4 |
| 20260505201557 | 90 | 269 | 1.7 | 7.8 | 0.00 | 0.00 | 0.00 | 54 | 1004.5 |
| 20260505201044 | 90 | 238 | 0.9 | 7.8 | 0.00 | 0.00 | 0.00 | 56 | 1004.4 |
| 20260505200544 | 90 | 248 | 2.6 | 7.8 | 0.00 | 0.00 | 0.00 | 55 | 1004.5 |
| 20260505200054 | 90 | 317 | 1.7 | 9.6 | 0.00 | 0.00 | 0.00 | 56 | 1004.6 |
| 20260505195546 | 90 | 0 | 1.7 | 9.6 | 0.00 | 0.00 | 0.00 | 57 | 1004.5 |
| 20260505195048 | 89 | 248 | 1.7 | 10.4 | 0.00 | 0.00 | 0.00 | 56 | 1004.5 |
| 20260505194552 | 89 | 306 | 3.5 | 10.4 | 0.00 | 0.00 | 0.00 | 57 | 1004.4 |
| 20260505194044 | 89 | 243 | 2.6 | 10.4 | 0.00 | 0.00 | 0.00 | 57 | 1004.5 |
| 20260505193548 | 89 | 244 | 2.6 | 10.4 | 0.00 | 0.00 | 0.00 | 57 | 1004.6 |
| 20260505193053 | 88 | 213 | 2.6 | 7.8 | 0.00 | 0.00 | 0.00 | 58 | 1004.6 |
| 20260505192547 | 88 | 296 | 1.7 | 9.6 | 0.00 | 0.00 | 0.00 | 58 | 1004.7 |
| 20260505192047 | 88 | 221 | 2.6 | 11.3 | 0.00 | 0.00 | 0.00 | 59 | 1004.5 |
| 20260505191603 | 87 | 240 | 3.5 | 11.3 | 0.00 | 0.00 | 0.00 | 59 | 1004.6 |
| 20260505191049 | 87 | 231 | 3.5 | 9.6 | 0.00 | 0.00 | 0.00 | 60 | 1004.7 |
| 20260505190550 | 87 | 65 | 0.9 | 7.8 | 0.00 | 0.00 | 0.00 | 62 | 1004.7 |
| 20260505190058 | 86 | 194 | 2.6 | 7.8 | 0.00 | 0.00 | 0.00 | 63 | 1004.6 |
| 20260505185547 | 86 | 273 | 2.6 | 8.7 | 0.00 | 0.00 | 0.00 | 64 | 1004.7 |
| 20260505185047 | 86 | 277 | 0.9 | 9.6 | 0.00 | 0.00 | 0.00 | 63 | 1004.7 |
| 20260505184551 | 85 | 229 | 1.7 | 9.6 | 0.00 | 0.00 | 0.00 | 63 | 1004.8 |
| 20260505184044 | 85 | 168 | 1.7 | 7.0 | 0.00 | 0.00 | 0.00 | 64 | 1004.9 |
| 20260505183544 | 85 | 240 | 0.9 | 7.0 | 0.00 | 0.00 | 0.00 | 64 | 1004.9 |
| 20260505183124 | 85 | 281 | 1.7 | 7.0 | 0.00 | 0.00 | 0.00 | 64 | 1004.8 |
| 20260505182544 | 85 | 240 | 1.7 | 7.0 | 0.00 | 0.00 | 0.00 | 65 | 1005.0 |
| 20260505182048 | 85 | 243 | 1.7 | 7.0 | 0.00 | 0.00 | 0.00 | 64 | 1005.0 |
| 20260505181553 | 84 | 161 | 0.9 | 7.8 | 0.00 | 0.00 | 0.00 | 66 | 1004.8 |
| 20260505181044 | 84 | 239 | 0.9 | 7.8 | 0.00 | 0.00 | 0.00 | 66 | 1005.0 |
| 20260505180543 | 84 | 239 | 2.6 | 8.7 | 0.00 | 0.00 | 0.00 | 67 | 1004.9 |
| 20260505180049 | 83 | 235 | 1.7 | 11.3 | 0.00 | 0.00 | 0.00 | 67 | 1004.9 |
| 20260505175547 | 83 | 254 | 2.6 | 11.3 | 0.00 | 0.00 | 0.00 | 66 | 1005.0 |
| 20260505175048 | 83 | 268 | 1.7 | 9.6 | 0.00 | 0.00 | 0.00 | 66 | 1004.9 |
| 20260505174552 | 83 | 324 | 1.7 | 9.6 | 0.00 | 0.00 | 0.00 | 66 | 1004.9 |
| 20260505174048 | 83 | 159 | 1.7 | 8.7 | 0.00 | 0.00 | 0.00 | 66 | 1004.8 |
| 20260505173548 | 83 | 234 | 2.6 | 10.4 | 0.00 | 0.00 | 0.00 | 66 | 1004.8 |
| 20260505173059 | 83 | 181 | 1.7 | 10.4 | 0.00 | 0.00 | 0.00 | 67 | 1004.8 |
| 20260505172550 | 83 | 191 | 1.7 | 10.4 | 0.00 | 0.00 | 0.00 | 67 | 1005.0 |
| 20260505172047 | 83 | 238 | 0.9 | 10.4 | 0.00 | 0.00 | 0.00 | 67 | 1005.0 |
| 20260505171604 | 83 | 241 | 1.7 | 7.0 | 0.00 | 0.00 | 0.00 | 66 | 1005.0 |
| 20260505171044 | 83 | 255 | 1.7 | 9.6 | 0.00 | 0.00 | 0.00 | 68 | 1004.9 |
| 20260505170543 | 82 | 203 | 2.6 | 9.6 | 0.00 | 0.00 | 0.00 | 68 | 1005.0 |
| 20260505170058 | 82 | 259 | 1.7 | 9.6 | 0.00 | 0.00 | 0.00 | 69 | 1005.0 |
| 20260505165544 | 81 | 252 | 2.6 | 11.3 | 0.00 | 0.00 | 0.00 | 69 | 1005.0 |
| 20260505165044 | 81 | 289 | 1.7 | 13.0 | 0.00 | 0.00 | 0.00 | 70 | 1005.0 |
| 20260505164552 | 80 | 207 | 5.2 | 13.0 | 0.00 | 0.00 | 0.00 | 70 | 1004.9 |
| 20260505164044 | 80 | 222 | 3.5 | 13.0 | 0.00 | 0.00 | 0.00 | 71 | 1005.0 |
| 20260505163547 | 80 | 261 | 3.5 | 12.2 | 0.00 | 0.00 | 0.00 | 70 | 1004.9 |
| 20260505163102 | 80 | 261 | 3.5 | 12.2 | 0.00 | 0.00 | 0.00 | 71 | 1004.8 |
| 20260505162544 | 80 | 248 | 2.6 | 14.8 | 0.00 | 0.00 | 0.00 | 71 | 1004.9 |
| 20260505162044 | 80 | 246 | 3.5 | 14.8 | 0.00 | 0.00 | 0.00 | 71 | 1004.9 |
| 20260505161629 | 80 | 232 | 2.6 | 9.6 | 0.00 | 0.00 | 0.00 | 71 | 1004.8 |
| 20260505161047 | 80 | 304 | 4.3 | 12.2 | 0.00 | 0.00 | 0.00 | 71 | 1004.9 |
| 20260505160544 | 80 | 268 | 3.5 | 12.2 | 0.00 | 0.00 | 0.00 | 72 | 1004.9 |
| 20260505153059 | 77 | 337 | 2.6 | 10.4 | 0.00 | 0.00 | 0.00 | 76 | 1004.4 |
| 20260505152548 | 77 | 315 | 2.6 | 8.7 | 0.00 | 0.00 | 0.00 | 76 | 1004.3 |
| 20260505152043 | 77 | 281 | 2.6 | 8.7 | 0.00 | 0.00 | 0.00 | 76 | 1004.5 |
| 20260505151618 | 77 | 248 | 1.7 | 9.6 | 0.00 | 0.00 | 0.00 | 76 | 1004.4 |
| 20260505151044 | 77 | 227 | 3.5 | 9.6 | 0.00 | 0.00 | 0.00 | 76 | 1004.4 |
| 20260505150548 | 77 | 235 | 1.7 | 8.7 | 0.00 | 0.00 | 0.00 | 77 | 1004.4 |
| 20260505140546 | 73 | 225 | 2.6 | 12.2 | 0.00 | 0.00 | 0.00 | 82 | 1004.1 |
| 20260505124551 | 70 | 229 | 1.7 | 11.3 | 0.00 | 0.00 | 0.00 | 86 | 1003.8 |
| 20260505124047 | 70 | 269 | 2.6 | 9.6 | 0.00 | 0.00 | 0.00 | 87 | 1003.8 |
| 20260505123549 | 70 | 162 | 1.7 | 7.8 | 0.00 | 0.00 | 0.00 | 87 | 1003.8 |
| 20260505123054 | 70 | 121 | 1.7 | 10.4 | 0.00 | 0.00 | 0.00 | 87 | 1003.9 |
| 20260505122546 | 70 | 0 | 2.6 | 10.4 | 0.00 | 0.00 | 0.00 | 87 | 1003.7 |
| 20260505122047 | 70 | 179 | 1.7 | 7.8 | 0.00 | 0.00 | 0.00 | 87 | 1003.7 |
| 20260505121556 | 70 | 225 | 2.6 | 8.7 | 0.00 | 0.00 | 0.00 | 87 | 1003.4 |
| 20260505121048 | 70 | 265 | 1.7 | 8.7 | 0.00 | 0.00 | 0.00 | 87 | 1003.4 |
| 20260505120544 | 70 | 255 | 1.7 | 8.7 | 0.00 | 0.00 | 0.00 | 87 | 1003.3 |
| 20260505120108 | 70 | 149 | 1.7 | 12.2 | 0.00 | 0.00 | 0.00 | 87 | 1003.4 |
| 20260505115546 | 70 | 237 | 2.6 | 12.2 | 0.00 | 0.00 | 0.00 | 87 | 1003.4 |
| 20260505115046 | 70 | 252 | 2.6 | 13.0 | 0.00 | 0.00 | 0.00 | 87 | 1003.3 |
| 20260505114550 | 70 | 183 | 0.9 | 13.0 | 0.00 | 0.00 | 0.00 | 87 | 1003.3 |
| 20260505114047 | 70 | 267 | 3.5 | 13.0 | 0.00 | 0.00 | 0.00 | 87 | 1003.3 |
| 20260505113546 | 70 | 255 | 1.7 | 13.0 | 0.00 | 0.00 | 0.00 | 87 | 1003.2 |
| 20260505113048 | 70 | 206 | 1.7 | 13.0 | 0.00 | 0.00 | 0.00 | 87 | 1003.1 |
| 20260505112547 | 70 | 288 | 3.5 | 13.0 | 0.00 | 0.00 | 0.00 | 87 | 1003.1 |
| 20260505112043 | 70 | 215 | 2.6 | 8.7 | 0.00 | 0.00 | 0.00 | 87 | 1003.2 |
| 20260505111552 | 70 | 236 | 0.9 | 7.8 | 0.00 | 0.00 | 0.00 | 86 | 1003.1 |
| 20260505111048 | 70 | 188 | 1.7 | 8.7 | 0.00 | 0.00 | 0.00 | 87 | 1003.2 |
| 20260505110548 | 70 | 281 | 1.7 | 10.4 | 0.00 | 0.00 | 0.00 | 87 | 1003.2 |